Tallevast, FL

9:02 PM EST on February 20, 2017 (GMT -0500)
Sarasota-bradenton

Weather History for KSRQ - January, 2004

Change the Weather History Date:

Wednesday, January 14, 2004

  Actual Average Record
Temperature  
Mean Temperature 53 °F 61 °F  
Max Temperature 64 °F 71 °F 84 °F (1937)
Min Temperature 42 °F 52 °F 25 °F (1981)
Degree Days  
Heating Degree Days 12 5  
Month to date heating degree days 79  
Since 1 July heating degree days 234  
Cooling Degree Days 0 2  
Month to date cooling degree days 28  
Year to date cooling degree days 28  
Growing Degree Days 3 (Base 50)    
Moisture  
Dew Point 48 °F    
Average Humidity 90    
Maximum Humidity 100    
Minimum Humidity 52    
Precipitation  
Precipitation 0.00 in 0.09 in 1.09 in (1995)
Month to date precipitation 1.52  
Year to date precipitation 1.52  
Sea Level Pressure  
Sea Level Pressure 30.17 in    
Wind  
Wind Speed 3 mph (West)    
Max Wind Speed 12 mph    
Max Gust Speed -    
Visibility 6 miles    
Events      
T = Trace of Precipitation, MM = Missing Value Source: NWS Daily Summary

Daily Weather History Graph

Daily Weather History Graph

Search for Another Location

Airport or City:

Trip Planner

Search our weather history database for the weather conditions in past years. The results will help you decide how hot, cold, wet, or windy it might be!

Date:

Astronomy

Jan. 14, 2004 Rise Set
Actual Time 7:21 AM EST 5:56 PM EST
Civil Twilight 6:56 AM EST 6:21 PM EST
Nautical Twilight 6:27 AM EST 6:50 PM EST
Astronomical Twilight 5:59 AM EST 7:18 PM EST
Moon No Moon Rise 11:54 AM EST (1/14)
Length of Visible Light 11h 25m
Length of Day
10h 34m
Waning Gibbous, 55% of the Moon is Illuminated
Jan 14
Waning Gibbous
Jan 14
Last Quarter
Jan 21
New
Jan 29
First Quarter
Feb 6
Full

Hourly Weather History & Observations

Time (EST) Temp. Windchill Dew Point Humidity Pressure Visibility Wind Dir Wind Speed Gust Speed Precip Events Conditions
12:53 AM 48.0 °F - 46.9 °F 96% 30.22 in 8.0 mi WSW 3.5 mph - N/A   Clear
1:53 AM 46.9 °F - 46.9 °F 100% 30.21 in 7.0 mi Calm Calm - N/A   Clear
2:53 AM 45.0 °F - 45.0 °F 100% 30.19 in 4.0 mi Calm Calm - N/A   Clear
3:53 AM 45.0 °F - 45.0 °F 100% 30.19 in 4.0 mi Calm Calm - N/A   Clear
4:53 AM 44.1 °F - 44.1 °F 100% 30.18 in 4.0 mi Calm Calm - N/A   Clear
5:17 AM 42.8 °F - 42.8 °F 100% 30.18 in 1.8 mi Calm Calm - N/A   Clear
5:30 AM 44.6 °F - 44.6 °F 100% 30.18 in 3.0 mi Calm Calm - N/A   Clear
5:53 AM 43.0 °F - 43.0 °F 100% 30.19 in 2.5 mi Calm Calm - N/A   Clear
6:21 AM 42.8 °F - 42.8 °F 100% 30.20 in 3.0 mi Calm Calm - N/A   Clear
6:53 AM 43.0 °F 41.3 °F 43.0 °F 100% 30.20 in 5.0 mi East 3.5 mph - N/A   Clear
7:00 AM 42.8 °F - 42.8 °F 100% 30.20 in 2.5 mi Calm Calm - N/A   Clear
7:31 AM 42.8 °F 40.1 °F 42.8 °F 100% 30.21 in 1.8 mi ESE 4.6 mph - N/A   Clear
7:45 AM 44.6 °F 42.2 °F 44.6 °F 100% 30.21 in 2.0 mi ESE 4.6 mph - N/A   Clear
7:53 AM 44.1 °F 42.5 °F 44.1 °F 100% 30.22 in 1.8 mi SE 3.5 mph - N/A   Clear
8:26 AM 48.2 °F - 48.2 °F 100% 30.22 in 3.0 mi Calm Calm - N/A   Clear
8:53 AM 51.1 °F - 51.1 °F 100% 30.21 in 3.0 mi East 3.5 mph - N/A   Clear
9:00 AM 51.8 °F - 51.8 °F 100% 30.22 in 2.5 mi Calm Calm - N/A   Clear
9:17 AM 53.6 °F - 51.8 °F 94% 30.22 in 5.0 mi Calm Calm - N/A   Clear
9:53 AM 57.0 °F - 54.0 °F 89% 30.22 in 5.0 mi ENE 3.5 mph - N/A   Clear
10:53 AM 62.1 °F - 51.1 °F 67% 30.22 in 10.0 mi Variable 4.6 mph - N/A   Clear
11:53 AM 62.1 °F - 52.0 °F 70% 30.19 in 8.0 mi West 8.1 mph - N/A   Clear
12:53 PM 63.0 °F - 51.1 °F 65% 30.14 in 10.0 mi SW 6.9 mph - N/A   Clear
1:53 PM 64.9 °F - 46.9 °F 52% 30.10 in 10.0 mi West 11.5 mph - N/A   Clear
3:53 PM 64.0 °F - 46.9 °F 54% 30.09 in 10.0 mi WNW 9.2 mph - N/A   Clear
4:53 PM 61.0 °F - 48.0 °F 62% 30.08 in 10.0 mi West 11.5 mph - N/A   Clear
6:53 PM 54.0 °F - 48.0 °F 80% 30.09 in 10.0 mi WNW 4.6 mph - N/A   Clear
7:53 PM 55.0 °F - 52.0 °F 89% 30.09 in 10.0 mi West 6.9 mph - N/A   Clear
8:53 PM 54.0 °F - 53.1 °F 97% 30.09 in 10.0 mi WNW 4.6 mph - N/A   Clear
9:53 PM 52.0 °F - 51.1 °F 97% 30.10 in 10.0 mi West 3.5 mph - N/A   Clear
10:53 PM 55.0 °F - 53.1 °F 93% 30.12 in 10.0 mi WSW 3.5 mph - N/A   Clear
11:53 PM 53.1 °F - 53.1 °F 100% 30.10 in 8.0 mi Calm Calm - N/A   Clear